Location: Newark
(2.0333°N, 45.3500°E)
Time: 01:07:50
(UTC+00:00)

X-37B - Visible Passes

Search period start: 22 September 2020 00:00
Search period end: 02 October 2020 00:00
Orbit: 386 x 387 km, 45.0° (Epoch: 18 September)

Date Brightness Start Highest point End Pass type
(mag) Time Alt. Az. Time Alt. Az. Time Alt. Az.
24 Sep 2.6 15:43:36 10° S 15:45:13 15° SE 15:45:13 15° SE visible
25 Sep 1.9 16:20:23 10° SW 16:22:41 40° W 16:22:41 40° W visible
26 Sep 1.0 15:21:57 10° SSW 15:24:58 42° SE 15:27:51 11° ENE visible
27 Sep 3.2 16:00:35 10° W 16:02:54 18° NW 16:05:11 10° N visible
28 Sep 3.5 01:54:23 10° N 01:56:18 15° NE 01:58:14 10° E visible
30 Sep 1.7 01:34:23 25° N 01:35:43 41° NE 01:38:44 10° ESE visible
01 Oct 2.2 02:11:51 13° W 02:13:38 19° SW 02:15:59 10° S visible
